Time,TemperatureF,DewpointF,PressureIn,WindDirection,WindDirectionDegrees,WindSpeedMPH,WindSpeedGustMPH,Humidity,HourlyPrecipIn,Conditions,Clouds,dailyrainin,SoftwareType,DateUTC
2013-09-04 01:00:00,55.0,38.0,-100.00,West,271,10.0,21.0,53,-99.99,,,-99.99,,2013-09-04 07:00:00,
2013-09-04 01:42:00,55.0,38.0,-100.00,West,271,10.0,21.0,53,-99.99,,,-99.99,,2013-09-04 07:42:00,
2013-09-04 01:52:00,55.0,38.0,-100.00,West,271,10.0,21.0,53,-99.99,,,-99.99,,2013-09-04 07:52:00,
2013-09-04 04:00:00,54.0,42.0,-100.00,West,260,10.0,22.0,65,-99.99,,,-99.99,,2013-09-04 10:00:00,
2013-09-04 04:42:00,54.0,42.0,-100.00,West,260,10.0,22.0,65,-99.99,,,-99.99,,2013-09-04 10:42:00,
2013-09-04 04:52:00,54.0,42.0,-100.00,West,260,10.0,22.0,65,-99.99,,,-99.99,,2013-09-04 10:52:00,
2013-09-04 05:00:00,53.0,43.0,-100.00,West,264,9.0,19.0,67,-99.99,,,-99.99,,2013-09-04 11:00:00,
2013-09-04 05:42:00,53.0,43.0,-100.00,West,264,9.0,19.0,67,-99.99,,,-99.99,,2013-09-04 11:42:00,
2013-09-04 05:52:00,53.0,43.0,-100.00,West,264,9.0,19.0,67,-99.99,,,-99.99,,2013-09-04 11:52:00,
2013-09-04 06:00:00,53.0,43.0,-100.00,WSW,252,8.0,15.0,69,-99.99,,,-99.99,,2013-09-04 12:00:00,
2013-09-04 06:42:00,53.0,43.0,-100.00,WSW,252,8.0,15.0,69,-99.99,,,-99.99,,2013-09-04 12:42:00,
2013-09-04 06:52:00,53.0,43.0,-100.00,WSW,252,8.0,15.0,69,-99.99,,,-99.99,,2013-09-04 12:52:00,
2013-09-04 07:00:00,52.0,43.0,-100.00,WSW,238,6.0,16.0,70,-99.99,,,-99.99,,2013-09-04 13:00:00,
2013-09-04 07:42:00,52.0,43.0,-100.00,WSW,238,6.0,16.0,70,-99.99,,,-99.99,,2013-09-04 13:42:00,
2013-09-04 07:52:00,52.0,43.0,-100.00,WSW,238,6.0,16.0,70,-99.99,,,-99.99,,2013-09-04 13:52:00,
2013-09-04 08:00:00,53.0,43.0,-100.00,WNW,283,8.0,19.0,68,-99.99,,,-99.99,,2013-09-04 14:00:00,
2013-09-04 08:42:00,53.0,43.0,-100.00,WNW,283,8.0,19.0,68,-99.99,,,-99.99,,2013-09-04 14:42:00,
2013-09-04 08:52:00,53.0,43.0,-100.00,WNW,283,8.0,19.0,68,-99.99,,,-99.99,,2013-09-04 14:52:00,
2013-09-04 09:00:00,56.0,40.0,-100.00,West,270,7.0,21.0,54,-99.99,,,-99.99,,2013-09-04 15:00:00,
2013-09-04 09:43:00,56.0,40.0,-100.00,West,270,7.0,21.0,54,-99.99,,,-99.99,,2013-09-04 15:43:00,
2013-09-04 09:53:00,56.0,40.0,-100.00,West,270,7.0,21.0,54,-99.99,,,-99.99,,2013-09-04 15:53:00,
2013-09-04 10:00:00,58.0,41.0,-100.00,SSW,210,5.0,15.0,53,-99.99,,,-99.99,,2013-09-04 16:00:00,
2013-09-04 10:43:00,58.0,41.0,-100.00,SSW,210,5.0,15.0,53,-99.99,,,-99.99,,2013-09-04 16:43:00,
2013-09-04 10:53:00,58.0,41.0,-100.00,SSW,210,5.0,15.0,53,-99.99,,,-99.99,,2013-09-04 16:53:00,
2013-09-04 12:00:00,60.0,43.0,-100.00,NW,306,4.0,10.0,52,-99.99,,,-99.99,,2013-09-04 18:00:00,
2013-09-04 12:42:00,60.0,43.0,-100.00,NW,306,4.0,10.0,52,-99.99,,,-99.99,,2013-09-04 18:42:00,
2013-09-04 12:52:00,60.0,43.0,-100.00,NW,306,4.0,10.0,52,-99.99,,,-99.99,,2013-09-04 18:52:00,
2013-09-04 13:00:00,63.0,44.0,-100.00,WNW,300,3.0,8.0,49,-99.99,,,-99.99,,2013-09-04 19:00:00,
2013-09-04 13:42:00,63.0,44.0,-100.00,WNW,300,3.0,8.0,49,-99.99,,,-99.99,,2013-09-04 19:42:00,
2013-09-04 13:52:00,63.0,44.0,-100.00,WNW,300,3.0,8.0,49,-99.99,,,-99.99,,2013-09-04 19:52:00,
2013-09-04 14:00:00,62.0,45.0,-100.00,WNW,289,4.0,8.0,52,-99.99,,,-99.99,,2013-09-04 20:00:00,
2013-09-04 14:43:00,62.0,45.0,-100.00,WNW,289,4.0,8.0,52,-99.99,,,-99.99,,2013-09-04 20:43:00,
2013-09-04 14:53:00,62.0,45.0,-100.00,WNW,289,4.0,8.0,52,-99.99,,,-99.99,,2013-09-04 20:53:00,
2013-09-04 15:00:00,61.0,47.0,-100.00,WNW,292,5.0,12.0,60,-99.99,,,-99.99,,2013-09-04 21:00:00,
2013-09-04 15:44:00,61.0,47.0,-100.00,WNW,292,5.0,12.0,60,-99.99,,,-99.99,,2013-09-04 21:44:00,
2013-09-04 15:54:00,61.0,47.0,-100.00,WNW,292,5.0,12.0,60,-99.99,,,-99.99,,2013-09-04 21:54:00,
2013-09-04 18:00:00,60.0,40.0,-100.00,South,176,8.0,19.0,47,-99.99,,,-99.99,,2013-09-05 00:00:00,
2013-09-04 18:43:00,60.0,40.0,-100.00,South,176,8.0,19.0,47,-99.99,,,-99.99,,2013-09-05 00:43:00,
2013-09-04 18:52:00,60.0,40.0,-100.00,South,176,8.0,19.0,47,-99.99,,,-99.99,,2013-09-05 00:52:00,
2013-09-04 19:00:00,59.0,41.0,-100.00,West,272,3.0,11.0,51,-99.99,,,-99.99,,2013-09-05 01:00:00,
2013-09-04 19:42:00,59.0,41.0,-100.00,West,272,3.0,11.0,51,-99.99,,,-99.99,,2013-09-05 01:42:00,
2013-09-04 19:52:00,59.0,41.0,-100.00,West,272,3.0,11.0,51,-99.99,,,-99.99,,2013-09-05 01:52:00,
2013-09-04 20:00:00,59.0,41.0,-100.00,South,169,3.0,6.0,52,-99.99,,,-99.99,,2013-09-05 02:00:00,
2013-09-04 20:52:00,59.0,41.0,-100.00,South,169,3.0,6.0,52,-99.99,,,-99.99,,2013-09-05 02:52:00,
2013-09-04 21:00:00,57.0,40.0,-100.00,SE,131,6.0,11.0,52,-99.99,,,-99.99,,2013-09-05 03:00:00,
2013-09-04 21:45:00,57.0,40.0,-100.00,SE,131,6.0,11.0,52,-99.99,,,-99.99,,2013-09-05 03:45:00,
2013-09-04 21:54:00,57.0,40.0,-100.00,SE,131,6.0,11.0,52,-99.99,,,-99.99,,2013-09-05 03:54:00,
2013-09-04 22:00:00,57.0,40.0,-100.00,SSE,151,4.0,11.0,54,-99.99,,,-99.99,,2013-09-05 04:00:00,
2013-09-04 22:44:00,57.0,40.0,-100.00,SSE,151,4.0,11.0,54,-99.99,,,-99.99,,2013-09-05 04:44:00,
2013-09-04 22:53:00,57.0,40.0,-100.00,SSE,151,4.0,11.0,54,-99.99,,,-99.99,,2013-09-05 04:53:00,
2013-09-04 23:00:00,57.0,40.0,-100.00,WSW,247,7.0,16.0,52,-99.99,,,-99.99,,2013-09-05 05:00:00,
2013-09-04 23:43:00,57.0,40.0,-100.00,WSW,247,7.0,16.0,52,-99.99,,,-99.99,,2013-09-05 05:43:00,
2013-09-04 23:52:00,57.0,40.0,-100.00,WSW,247,7.0,16.0,52,-99.99,,,-99.99,,2013-09-05 05:52:00,